CZ-4C DEB

Satellite information

Favourite Embed

Satellite Type and Status

DEBRISIN ORBIT

Key statistics

Satellite CZ-4C DEB at a glance.

Uptime

4415

Days in orbit

Revolutions

≈ 14.3

Per day

Orbit

SSO

Sun Synchronous Orbit

Inclination

98.6

Latest

Satellite identification and parameters

Extended collection of information and parameters for CZ-4C DEB.

Object identification

Identified? True

Debris? True

Object name: CZ-4C DEB

International designator: 2013-052F

Object number (NORAD): 43411

Object ID (CCSDS): 43411

Country: PEOPLES REPUBLIC OF CHINA (PRC)

Current information (Y/N): Y

RCS size: SMALL

Orbital parameters

Period: 100.903 minutes

Inclination: 98.5544 deg

SMA: 7179.551 km

Apoapsis: 805.151 km

Periapsis: 797.68 km

RAAN: 19.2678 deg

Eccentricy: 0.0005203

Argument of periapsis: 22.4659 deg

Mean anomaly: 337.6749 deg

Mean motion: 14.27108003 rev/day

Mean motion (dot): 0.00000167 rev/day2

B* drag term: 0.000086164 1/REarth

Two-line elements (TLE)

Creation date: Oct. 23, 2025, 10:16 p.m.

Reference frame: TEME

Reference center: EARTH

Epoch: Oct. 23, 2025, 12:10 p.m. UTC

TLE line 0: 0 CZ-4C DEB

TLE line 1: 1 43411U 13052F 25296.50707506 .00000167 00000-0 86164-4 0 9991

TLE line 2: 2 43411 98.5544 19.2678 0005203 22.4659 337.6749 14.27108003620633

Live tracking on map

Real-time ground track for satellite CZ-4C DEB.

In-orbit conjunctions

A list of the most updated potential collisions computed for object CZ-4C DEB.

Target Orbit TCA Probability of collision Miss distance Type
FENGYUN 1C DEB SSO 2025-07-03 01:25:27 0.000104787 101.0 (m) DEBRIS
COSMOS 1275 DEB LEO 2024-09-25 05:35:50 0.0004885084 106.0 (m) DEBRIS
THORAD AGENA D DEB SSO 2024-07-08 09:26:43 0.001416565 82.0 (m) DEBRIS

Associated space launch

CZ-4C DEB was lifted into orbit during the mission ‘Long March 4C | Fengyun-3C’, on board a Long March 4C space rocket.

The launch took place on Sept. 23, 2013, 3:07 a.m. from Launch Complex 9.

For more information about the launch, click the button.

Launch to space Long March 4C | Fengyun-3C
Long March 4C | Fengyun-3C

Agency: N/A

Status: Launch Successful

Launch date: Sept. 23, 2013, 3:07 a.m. UTC

Rocket: Long March 4C

Launch pad: Launch Complex 9

Location: Taiyuan Satellite Launch Center, People's Republic of China

...

Latest news about this satellite

There are no fresh news available about this satellite. Check back as we update our databases every day.


Newsletter sign-up

Weekly statistics, charts and insights to help you stay on top of the space industry.